Tracking 17752 objects as of 1-July-2016
HD Live streaming from Space Station
objects crossing your sky now

THORAD AGENA D DEB

Track THORAD AGENA D DEB now!
10-day predictions


NORAD ID: 4171
Int'l Code: 1969-082AP
Perigee: 771.8 km
Apogee: 825.9 km
Inclination: 70.1 °
Period: 100.7 minutes
Semi major axis: 7169 km
RCS: 0.0461 m2 (small)
Launch date: September 30, 1969
Source: United States (US)
Launch site: AIR FORCE WESTERN TEST RANGE (AFWTR)

Note: This is SATELLITE DEBRIS
Your satellite tracking list
Your tracking list is empty





NASA's NSSDC Master Catalog

Two Line Element Set (TLE):
1  4171U 69082AP  16181.91952735 +.00000196 +00000-0 +95584-4 0  9997
2  4171 070.0787 129.0865 0037759 166.4293 193.7857 14.30833391417936
Source of the keplerian elements: AFSPC

N2YO: 1025